This is the latest recevied weather packets stored in our database for station/object HS2XQB-3. If no packets are shown the sender has not sent any weather packets the latest 10 day(s).
| Time | Temp. | Humidity | Pressure | Rain* | Wind** | Luminosity | Snow |
|---|---|---|---|---|---|---|---|
| 1777554782 | 23.89° C | 64% | 1005 hPa | - | - | 0 W/m² | - |
| 1777552960 | 23.89° C | 64% | 1005 hPa | - | - | 0 W/m² | - |
| 1777551137 | 24.44° C | 67% | 1004 hPa | - | - | 0 W/m² | - |
| 1777549315 | 23.89° C | 57% | 1003 hPa | - | - | 0 W/m² | - |
| 1777547492 | 24.44° C | 62% | 1003 hPa | - | - | 0 W/m² | - |
| 1777545667 | 23.89° C | 52% | 1003 hPa | - | - | 0 W/m² | - |
| 1777543845 | 23.89° C | 48% | 1002 hPa | - | - | 0 W/m² | - |
| 1777542022 | 24.44° C | 47% | 1003 hPa | - | - | 0 W/m² | - |
| 1777540200 | 25° C | 46% | 1003 hPa | - | - | 0 W/m² | - |
| 1777538378 | 25.56° C | 44% | 1003 hPa | - | - | 0 W/m² | - |
| 1777536555 | 25.56° C | 44% | 1003 hPa | - | - | 0 W/m² | - |
| 1777534733 | 25.56° C | 44% | 1004 hPa | - | - | 0 W/m² | - |
| 1777532910 | 26.11° C | 44% | 1004 hPa | - | - | 0 W/m² | - |
| 1777531086 | 26.11° C | 46% | 1005 hPa | - | - | 0 W/m² | - |
| 1777529263 | 26.11° C | 46% | 1006 hPa | - | - | 0 W/m² | - |
| 1777527441 | 27.22° C | 52% | 1006 hPa | - | - | 0 W/m² | - |
| 1777525618 | 23.89° C | 47% | 1006 hPa | - | - | 0 W/m² | - |
| 1777523795 | 24.44° C | 47% | 1006 hPa | - | - | 0 W/m² | - |
| 1777521973 | 24.44° C | 45% | 1007 hPa | - | - | 0 W/m² | - |
| 1777520150 | 24.44° C | 45% | 1007 hPa | - | - | 0 W/m² | - |
| 1777518328 | 24.44° C | 48% | 1007 hPa | - | - | 0 W/m² | - |
| 1777516505 | 23.89° C | 48% | 1007 hPa | - | - | 0 W/m² | - |
| 1777514682 | 24.44° C | 48% | 1007 hPa | - | - | 0 W/m² | - |
| 1777512859 | 23.89° C | 51% | 1007 hPa | - | - | 0 W/m² | - |
| 1777511036 | 24.44° C | 52% | 1007 hPa | - | - | 0 W/m² | - |
* Rain since midnight (hover to see other rain measurements)
** Current wind speed in m/s (hover to see current wind gust speed)